Location: ??????
(38.1303°N, 24.0039°E)
Time: 06:32:34
(UTC+00:00)

NOSS 2-2 (C) - Pass Details

Date: 20 June 2021
Orbit: 454 x 1753 km, 63.3° (Epoch: 28 July)

Event Time Altitude Azimuth Distance (km) Brightness Sun altitude
Exits shadow 00:34:27 34° 307° (NW) 763 4.0 -21.4°
Maximum altitude 00:34:28 34° 308° (NW) 763 4.0 -21.4°
Drops below altitude 10° 00:37:45 10° 16° (NNE) 1,654 6.8 -21.1°
Sets 00:40:07 0° 26° (NNE) 2,626 8.3 -20.8°
